• In Uzbekistan
  • List of Countries
  • For 7 days
  • Water Temperature
  • Satellite Maps
  • Weather Map
  • Weather Widgets
  • user-avatar
    Login

    Hourly Weather Nyirbator

    Today, 20 September, Wednesday

    Time Temperature Precipitation Wind Pressure Humidity
    00:00 +14°C° 0.4 mm 2 mps 744 mmHg 92%
    01:00 +13°C° 0 mm 1 mps 744 mmHg 95%
    02:00 +13°C° 0.1 mm 1 mps 744 mmHg 94%
    03:00 +13°C° 0.1 mm 1 mps 744 mmHg 94%
    04:00 +13°C° 0.1 mm 1 mps 744 mmHg 94%
    05:00 +14°C° 0 mm 1 mps 744 mmHg 92%
    06:00 +14°C° 0 mm 1 mps 744 mmHg 89%
    07:00 +15°C° 0 mm 1 mps 744 mmHg 87%
    08:00 +16°C° 0 mm 1 mps 744 mmHg 81%
    09:00 +18°C° 0 mm 1 mps 744 mmHg 76%
    10:00 +20°C° 0 mm 1 mps 744 mmHg 70%
    11:00 +21°C° 0 mm 1 mps 744 mmHg 64%
    12:00 +21°C° 0 mm 2 mps 744 mmHg 58%
    13:00 +23°C° 0 mm 2 mps 744 mmHg 52%
    14:00 +23°C° 0 mm 2 mps 744 mmHg 53%
    15:00 +21°C° 0 mm 2 mps 743 mmHg 54%
    16:00 +21°C° 0 mm 3 mps 743 mmHg 55%
    17:00 +20°C° 0.1 mm 3 mps 743 mmHg 60%
    18:00 +19°C° 0.1 mm 3 mps 743 mmHg 64%
    19:00 +17°C° 0.1 mm 3 mps 744 mmHg 69%
    20:00 +17°C° 0 mm 3 mps 744 mmHg 72%
    21:00 +15°C° 0 mm 4 mps 744 mmHg 75%
    22:00 +15°C° 0 mm 4 mps 744 mmHg 78%
    23:00 +14°C° 0.1 mm 4 mps 744 mmHg 80%

    Tomorrow, 21 September, Thursday

    Time Temperature Precipitation Wind Pressure Humidity
    00:00 +14°C° 0.1 mm 4 mps 743 mmHg 82%
    01:00 +14°C° 0.1 mm 4 mps 743 mmHg 84%
    02:00 +14°C° 0.7 mm 4 mps 743 mmHg 86%
    03:00 +13°C° 0.7 mm 5 mps 743 mmHg 87%
    04:00 +13°C° 0.7 mm 5 mps 743 mmHg 89%
    05:00 +13°C° 1.7 mm 6 mps 743 mmHg 88%
    06:00 +13°C° 1.7 mm 6 mps 743 mmHg 88%
    07:00 +12°C° 1.7 mm 7 mps 743 mmHg 88%
    08:00 +11°C° 1.2 mm 6 mps 743 mmHg 87%
    09:00 +11°C° 1.2 mm 6 mps 744 mmHg 86%
    10:00 +11°C° 1.2 mm 6 mps 744 mmHg 86%
    11:00 +12°C° 0.3 mm 5 mps 744 mmHg 86%
    12:00 +12°C° 0.3 mm 5 mps 744 mmHg 86%
    13:00 +12°C° 0.3 mm 5 mps 744 mmHg 86%
    14:00 +12°C° 0.5 mm 5 mps 744 mmHg 87%
    15:00 +12°C° 0.5 mm 5 mps 745 mmHg 87%
    16:00 +12°C° 0.5 mm 5 mps 745 mmHg 88%
    17:00 +12°C° 0.3 mm 5 mps 745 mmHg 88%
    18:00 +12°C° 0.3 mm 4 mps 746 mmHg 88%
    19:00 +11°C° 0.3 mm 4 mps 746 mmHg 89%
    20:00 +11°C° 0.2 mm 4 mps 746 mmHg 89%
    21:00 +11°C° 0.2 mm 4 mps 746 mmHg 89%
    22:00 +11°C° 0.2 mm 3 mps 746 mmHg 90%
    23:00 +11°C° 0.2 mm 3 mps 747 mmHg 90%

    Day after tomorrow, 22 September, Friday

    Time Temperature Precipitation Wind Pressure Humidity
    00:00 +11°C° 0.2 mm 3 mps 747 mmHg 90%
    01:00 +11°C° 0.2 mm 3 mps 747 mmHg 91%
    02:00 +12°C° 0.1 mm 2 mps 747 mmHg 91%
    03:00 +12°C° 0.1 mm 2 mps 748 mmHg 91%
    04:00 +12°C° 0.1 mm 2 mps 748 mmHg 91%
    05:00 +12°C° 0.1 mm 2 mps 748 mmHg 90%
    06:00 +13°C° 0.1 mm 2 mps 748 mmHg 89%
    07:00 +13°C° 0.1 mm 2 mps 749 mmHg 88%
    08:00 +13°C° 0 mm 2 mps 749 mmHg 85%
    09:00 +13°C° 0 mm 3 mps 749 mmHg 83%
    10:00 +14°C° 0 mm 3 mps 750 mmHg 80%
    11:00 +14°C° 0 mm 3 mps 750 mmHg 76%
    12:00 +16°C° 0 mm 3 mps 750 mmHg 72%
    13:00 +17°C° 0 mm 4 mps 750 mmHg 67%
    14:00 +17°C° 0 mm 3 mps 750 mmHg 66%
    15:00 +18°C° 0 mm 3 mps 750 mmHg 66%
    16:00 +18°C° 0 mm 3 mps 751 mmHg 65%
    17:00 +16°C° 0 mm 3 mps 751 mmHg 69%
    18:00 +15°C° 0 mm 2 mps 751 mmHg 73%
    19:00 +14°C° 0 mm 2 mps 751 mmHg 78%
    20:00 +13°C° 0 mm 2 mps 752 mmHg 79%
    21:00 +13°C° 0 mm 2 mps 752 mmHg 81%
    22:00 +12°C° 0 mm 2 mps 752 mmHg 82%
    23:00 +12°C° 0 mm 2 mps 752 mmHg 84%

    23 September, Saturday

    Time Temperature Precipitation Wind Pressure Humidity
    00:00 +10°C° 0 mm 2 mps 752 mmHg 85%
    01:00 +10°C° 0 mm 2 mps 752 mmHg 87%
    02:00 +10°C° 0 mm 2 mps 752 mmHg 87%
    03:00 +9°C° 0 mm 2 mps 752 mmHg 88%
    04:00 +9°C° 0 mm 2 mps 752 mmHg 88%
    05:00 +10°C° 0 mm 2 mps 752 mmHg 85%
    06:00 +12°C° 0 mm 2 mps 752 mmHg 82%
    07:00 +12°C° 0 mm 2 mps 752 mmHg 79%
    08:00 +14°C° 0 mm 2 mps 752 mmHg 72%
    09:00 +16°C° 0 mm 3 mps 752 mmHg 64%
    10:00 +18°C° 0 mm 3 mps 752 mmHg 57%
    11:00 +18°C° 0 mm 3 mps 752 mmHg 54%
    12:00 +19°C° 0 mm 3 mps 752 mmHg 52%
    13:00 +20°C° 0 mm 3 mps 752 mmHg 49%
    14:00 +19°C° 0 mm 3 mps 752 mmHg 53%
    15:00 +18°C° 0 mm 3 mps 752 mmHg 57%
    16:00 +18°C° 0 mm 3 mps 752 mmHg 60%
    17:00 +16°C° 0 mm 2 mps 752 mmHg 66%
    18:00 +15°C° 0 mm 2 mps 752 mmHg 72%
    19:00 +13°C° 0 mm 1 mps 752 mmHg 77%
    20:00 +13°C° 0 mm 1 mps 752 mmHg 77%
    21:00 +13°C° 0 mm 2 mps 752 mmHg 77%
    22:00 +13°C° 0 mm 2 mps 752 mmHg 76%
    23:00 +13°C° 0 mm 2 mps 752 mmHg 77%

    24 September, Sunday

    Time Temperature Precipitation Wind Pressure Humidity
    00:00 +13°C° 0 mm 2 mps 752 mmHg 78%
    01:00 +12°C° 0 mm 3 mps 752 mmHg 79%
    02:00 +12°C° 0 mm 3 mps 752 mmHg 80%
    03:00 +12°C° 0 mm 3 mps 751 mmHg 80%
    04:00 +11°C° 0 mm 3 mps 751 mmHg 81%
    05:00 +12°C° 0.1 mm 3 mps 751 mmHg 80%
    06:00 +12°C° 0.1 mm 3 mps 751 mmHg 79%
    07:00 +13°C° 0.1 mm 3 mps 751 mmHg 78%
    08:00 +13°C° 0.5 mm 4 mps 751 mmHg 77%
    09:00 +13°C° 0.5 mm 4 mps 751 mmHg 76%
    10:00 +14°C° 0.5 mm 4 mps 751 mmHg 75%
    11:00 +14°C° 1.1 mm 4 mps 751 mmHg 77%
    12:00 +14°C° 1.1 mm 4 mps 751 mmHg 78%
    13:00 +14°C° 1.1 mm 4 mps 750 mmHg 80%
    14:00 +13°C° 0.9 mm 4 mps 751 mmHg 83%
    15:00 +13°C° 0.9 mm 3 mps 751 mmHg 85%
    16:00 +13°C° 0.9 mm 3 mps 751 mmHg 88%
    17:00 +13°C° 0.3 mm 2 mps 751 mmHg 89%
    18:00 +13°C° 0.3 mm 2 mps 751 mmHg 90%
    19:00 +13°C° 0.3 mm 1 mps 751 mmHg 92%
    20:00 +13°C° 0.1 mm 1 mps 751 mmHg 92%
    21:00 +12°C° 0.1 mm 1 mps 751 mmHg 93%
    22:00 +12°C° 0.1 mm 1 mps 751 mmHg 94%
    23:00 +12°C° 0 mm 1 mps 751 mmHg 95%

    25 September, Monday

    Time Temperature Precipitation Wind Pressure Humidity
    00:00 +12°C° 0 mm 1 mps 751 mmHg 95%
    01:00 +11°C° 0 mm 1 mps 751 mmHg 96%
    02:00 +11°C° 0.1 mm 1 mps 751 mmHg 96%
    03:00 +11°C° 0.1 mm 1 mps 751 mmHg 96%
    04:00 +11°C° 0.1 mm 1 mps 751 mmHg 96%
    05:00 +12°C° 0.2 mm 1 mps 752 mmHg 95%
    06:00 +12°C° 0.2 mm 1 mps 752 mmHg 94%
    07:00 +12°C° 0.2 mm 1 mps 752 mmHg 93%
    08:00 +13°C° 0.2 mm 1 mps 752 mmHg 89%
    09:00 +14°C° 0.2 mm 1 mps 752 mmHg 85%
    10:00 +15°C° 0.2 mm 1 mps 752 mmHg 81%
    11:00 +16°C° 0.1 mm 1 mps 752 mmHg 78%
    12:00 +16°C° 0.1 mm 1 mps 752 mmHg 75%
    13:00 +18°C° 0.1 mm 1 mps 752 mmHg 72%
    14:00 +18°C° 0 mm 1 mps 752 mmHg 71%
    15:00 +18°C° 0 mm 1 mps 752 mmHg 71%
    16:00 +19°C° 0 mm 1 mps 752 mmHg 70%
    17:00 +16°C° 0 mm 1 mps 752 mmHg 76%
    18:00 +15°C° 0 mm 1 mps 753 mmHg 82%
    19:00 +14°C° 0 mm 2 mps 753 mmHg 88%
    20:00 +13°C° 0 mm 2 mps 753 mmHg 89%
    21:00 +13°C° 0 mm 1 mps 753 mmHg 90%
    22:00 +12°C° 0 mm 1 mps 753 mmHg 91%
    23:00 +12°C° 0 mm 1 mps 753 mmHg 91%
    Show more